Weather History for Hilton Head Island, SC

Change the Weather History Date:

Tuesday, May 14, 2013

  Actual Average Record
Temperature  
Mean Temperature 63 °F -  
Max Temperature 71 °F 82 °F 94 °F (1956)
Min Temperature 55 °F 62 °F 48 °F (1960)
Degree Days  
Heating Degree Days 2    
Growing Degree Days 13 (Base 50)    
Moisture  
Dew Point 47 °F    
Average Humidity 60    
Maximum Humidity 72    
Minimum Humidity 38    
Precipitation  
Precipitation 0.00 in - - ()
Sea Level Pressure  
Sea Level Pressure 30.20 in    
Wind  
Wind Speed 4 mph (North)    
Max Wind Speed 9 mph    
Max Gust Speed -    
Visibility 10 miles    
Events      
Averages and records for this station are not official NWS values.
T = Trace of Precipitation, MM = Missing Value Source: NWS Daily Summary

Daily Weather History Graph

Daily Weather History Graph

Search for Another Location

Airport:

Trip Planner

Search our weather history database for the weather conditions in past years. The results will help you decide how hot, cold, wet, or windy it might be!

Date:

Astronomy

May. 14, 2013 Rise Set
Actual Time 6:25 AM EDT 8:13 PM EDT
Civil Twilight 5:58 AM EDT 8:40 PM EDT
Nautical Twilight 5:26 AM EDT 9:12 PM EDT
Astronomical Twilight 4:51 AM EDT 9:47 PM EDT
Moon 10:03 AM EDT (5/14) No Moon Set
Length of Visible Light 14h 41m
Length of Day
13h 47m
Waxing Crescent, 19% of the Moon is Illuminated
May 14
Waxing Crescent
May 18
First Quarter
May 25
Full
May 31
Last Quarter
Jun 8
New

Hourly Weather History & Observations

Time (EDT) Temp. Dew Point Humidity Pressure Visibility Wind Dir Wind Speed Gust Speed Precip Events Conditions
12:15 AM 59.0 °F 42.8 °F 55% 30.17 in 10.0 mi Calm Calm - 0.00 in   Clear
12:35 AM 57.2 °F 42.8 °F 59% 30.18 in 10.0 mi WNW 3.5 mph - 0.00 in   Clear
12:55 AM 57.2 °F 42.8 °F 59% 30.17 in 10.0 mi Calm Calm - 0.00 in   Clear
1:15 AM 57.2 °F 44.6 °F 63% 30.17 in 10.0 mi Calm Calm - 0.00 in   Clear
1:35 AM 55.4 °F 44.6 °F 67% 30.17 in 10.0 mi SW 4.6 mph - 0.00 in   Clear
1:55 AM 55.4 °F 46.4 °F 72% 30.17 in 10.0 mi West 3.5 mph - 0.00 in   Clear
2:15 AM 55.4 °F 46.4 °F 72% 30.17 in 10.0 mi Calm Calm - 0.00 in   Clear
2:35 AM 55.4 °F 44.6 °F 67% 30.18 in 10.0 mi WNW 4.6 mph - 0.00 in   Clear
2:55 AM 60.8 °F 44.6 °F 55% 30.17 in 10.0 mi NW 3.5 mph - 0.00 in   Clear
3:15 AM 59.0 °F 44.6 °F 59% 30.17 in 10.0 mi Calm Calm - 0.00 in   Clear
3:35 AM 57.2 °F 44.6 °F 63% 30.17 in 10.0 mi NW 3.5 mph - 0.00 in   Clear
3:55 AM 60.8 °F 42.8 °F 52% 30.17 in 10.0 mi NNW 5.8 mph - 0.00 in   Clear
4:15 AM 55.4 °F 44.6 °F 67% 30.17 in 10.0 mi NNW 5.8 mph - 0.00 in   Clear
4:35 AM 57.2 °F 44.6 °F 63% 30.16 in 10.0 mi NW 3.5 mph - 0.00 in   Clear
4:55 AM 57.2 °F 44.6 °F 63% 30.17 in 10.0 mi NNW 4.6 mph - 0.00 in   Clear
5:15 AM 55.4 °F 44.6 °F 67% 30.18 in 10.0 mi NNW 5.8 mph - 0.00 in   Clear
5:35 AM 55.4 °F 44.6 °F 67% 30.18 in 10.0 mi NNW 4.6 mph - 0.00 in   Clear
5:55 AM 57.2 °F 42.8 °F 59% 30.18 in 10.0 mi NNW 5.8 mph - 0.00 in   Clear
6:15 AM 57.2 °F 42.8 °F 59% 30.19 in 10.0 mi NNW 6.9 mph - 0.00 in   Clear
6:35 AM 55.4 °F 42.8 °F 63% 30.20 in 10.0 mi NNW 8.1 mph - 0.00 in   Clear
6:50 AM 57.2 °F 42.8 °F 59% 30.20 in 10.0 mi North 9.2 mph - N/A   Clear
7:50 AM 59.0 °F 44.6 °F 59% 30.22 in 10.0 mi North 9.2 mph - N/A   Clear
9:50 AM 66.2 °F 44.6 °F 46% 30.26 in 10.0 mi NNE 9.2 mph - N/A   Clear
10:50 AM 68.0 °F 44.6 °F 43% 30.27 in 10.0 mi ENE 9.2 mph - N/A   Clear
11:50 AM 69.8 °F 53.6 °F 56% 30.28 in 10.0 mi NE 8.1 mph - N/A   Clear
12:55 PM 71.6 °F 53.6 °F 53% 30.27 in 10.0 mi NE 9.2 mph - N/A   Clear
1:50 PM 71.6 °F 51.8 °F 50% 30.26 in 10.0 mi NE 8.1 mph - N/A   Clear
2:50 PM 71.6 °F 51.8 °F 50% 30.25 in 10.0 mi ENE 6.9 mph - N/A   Clear
3:55 PM 71.6 °F 51.8 °F 50% 30.22 in 10.0 mi East 8.1 mph - N/A   Clear
4:50 PM 71.6 °F 51.8 °F 50% 30.22 in 10.0 mi SSE 5.8 mph - N/A   Clear
6:50 PM 71.6 °F 44.6 °F 38% 30.20 in 10.0 mi SSE 5.8 mph - N/A   Clear
7:50 PM 68.0 °F 48.2 °F 49% 30.20 in 10.0 mi SSE 3.5 mph - N/A   Clear
9:15 PM 60.8 °F 48.2 °F 63% 30.21 in 10.0 mi Calm Calm - 0.00 in   Clear
9:35 PM 60.8 °F 48.2 °F 63% 30.21 in 10.0 mi Calm Calm - 0.00 in   Clear
9:55 PM 60.8 °F 50.0 °F 68% 30.22 in 10.0 mi South 3.5 mph - 0.00 in   Clear
10:15 PM 60.8 °F 50.0 °F 68% 30.22 in 10.0 mi Calm Calm - 0.00 in   Clear
10:35 PM 60.8 °F 50.0 °F 68% 30.22 in 10.0 mi SSE 3.5 mph - 0.00 in   Clear
10:55 PM 60.8 °F 50.0 °F 68% 30.21 in 10.0 mi SSE 3.5 mph - 0.00 in   Clear
11:15 PM 60.8 °F 51.8 °F 72% 30.21 in 10.0 mi South 3.5 mph - 0.00 in   Clear
11:35 PM 62.6 °F 51.8 °F 68% 30.20 in 10.0 mi South 5.8 mph - 0.00 in   Clear
11:55 PM 62.6 °F 51.8 °F 68% 30.20 in 10.0 mi SSE 5.8 mph - 0.00 in   Clear